| time (UTC) | temp F | wind direction | speed MPH | gust MPH | rain 1hr in | rain 24hr in | rain mn in | humidity % | barometer mb |
| 20260507101219 | 63 | 11 | 6.0 | 16.0 | 0.00 | 0.01 | 0.00 | 79 | 1014.8 |
| 20260507100719 | 64 | 40 | 7.0 | 16.0 | 0.00 | 0.01 | 0.00 | 79 | 1014.6 |
| 20260507100219 | 64 | 11 | 7.0 | 14.0 | 0.00 | 0.01 | 0.00 | 79 | 1014.6 |
| 20260507095724 | 64 | 29 | 5.0 | 12.0 | 0.00 | 0.01 | 0.00 | 79 | 1014.7 |
| 20260507095720 | 64 | 306 | 6.0 | 12.0 | 0.00 | 0.01 | 0.00 | 79 | 1014.5 |
| 20260507094718 | 64 | 340 | 5.0 | 11.0 | 0.00 | 0.01 | 0.00 | 79 | 1014.8 |
| 20260507094217 | 64 | 71 | 6.0 | 16.0 | 0.00 | 0.01 | 0.00 | 79 | 1014.7 |
| 20260507093717 | 64 | 55 | 5.0 | 16.0 | 0.00 | 0.01 | 0.00 | 79 | 1014.7 |
| 20260507093217 | 64 | 38 | 4.0 | 10.0 | 0.00 | 0.01 | 0.00 | 79 | 1014.7 |
| 20260507092721 | 64 | 29 | 5.0 | 11.0 | 0.00 | 0.01 | 0.00 | 79 | 1014.8 |
| 20260507092717 | 64 | 22 | 4.0 | 11.0 | 0.00 | 0.01 | 0.00 | 79 | 1014.8 |
| 20260507091717 | 64 | 0 | 5.0 | 13.0 | 0.00 | 0.01 | 0.00 | 79 | 1014.8 |
| 20260507091221 | 64 | 30 | 4.0 | 11.0 | 0.00 | 0.01 | 0.00 | 79 | 1014.7 |
| 20260507091217 | 64 | 23 | 5.0 | 13.0 | 0.00 | 0.01 | 0.00 | 79 | 1014.7 |
| 20260507090217 | 64 | 25 | 5.0 | 11.0 | 0.00 | 0.01 | 0.00 | 79 | 1014.8 |
| 20260507085715 | 64 | 40 | 5.0 | 11.0 | 0.00 | 0.01 | 0.00 | 79 | 1014.8 |
| 20260507085215 | 64 | 13 | 5.0 | 12.0 | 0.00 | 0.01 | 0.00 | 79 | 1014.8 |
| 20260507084715 | 64 | 11 | 6.0 | 12.0 | 0.00 | 0.01 | 0.00 | 79 | 1014.8 |
| 20260507084215 | 64 | 310 | 5.0 | 11.0 | 0.00 | 0.01 | 0.00 | 79 | 1014.8 |
| 20260507083715 | 64 | 17 | 5.0 | 13.0 | 0.00 | 0.01 | 0.00 | 79 | 1014.8 |
| 20260507083216 | 64 | 41 | 5.0 | 13.0 | 0.00 | 0.01 | 0.00 | 79 | 1014.8 |
| 20260507082820 | 64 | 296 | 3.0 | 9.0 | 0.00 | 0.01 | 0.00 | 79 | 1014.7 |
| 20260507082720 | 64 | 321 | 3.0 | 9.0 | 0.00 | 0.01 | 0.00 | 79 | 1014.9 |
| 20260507082716 | 64 | 28 | 4.0 | 9.0 | 0.00 | 0.01 | 0.00 | 79 | 1014.9 |
| 20260507081218 | 64 | 42 | 4.0 | 9.0 | 0.00 | 0.01 | 0.00 | 79 | 1014.9 |
| 20260507081214 | 64 | 34 | 3.0 | 9.0 | 0.00 | 0.01 | 0.00 | 79 | 1015.1 |
| 20260507080817 | 64 | 18 | 4.0 | 10.0 | 0.00 | 0.01 | 0.00 | 79 | 1015.0 |
| 20260507075713 | 64 | 34 | 4.0 | 10.0 | 0.00 | 0.01 | 0.00 | 79 | 1014.9 |
| 20260507075213 | 64 | 36 | 4.0 | 11.0 | 0.00 | 0.01 | 0.00 | 79 | 1014.8 |
| 20260507074717 | 64 | 55 | 4.0 | 9.0 | 0.00 | 0.01 | 0.00 | 79 | 1014.8 |
| 20260507074713 | 64 | 337 | 5.0 | 11.0 | 0.00 | 0.01 | 0.00 | 79 | 1014.8 |
| 20260507074318 | 64 | 19 | 4.0 | 9.0 | 0.00 | 0.01 | 0.00 | 79 | 1014.9 |
| 20260507073217 | 64 | 355 | 3.0 | 10.0 | 0.00 | 0.01 | 0.00 | 79 | 1015.2 |
| 20260507073213 | 64 | 19 | 4.0 | 10.0 | 0.00 | 0.01 | 0.00 | 79 | 1015.1 |
| 20260507072213 | 65 | 344 | 3.0 | 9.0 | 0.00 | 0.01 | 0.00 | 79 | 1015.2 |
| 20260507071716 | 65 | 332 | 4.0 | 10.0 | 0.00 | 0.01 | 0.00 | 79 | 1015.4 |
| 20260507071711 | 65 | 36 | 4.0 | 10.0 | 0.00 | 0.01 | 0.00 | 79 | 1015.2 |
| 20260507070711 | 65 | 42 | 3.0 | 7.0 | 0.00 | 0.01 | 0.00 | 79 | 1015.4 |
| 20260507070211 | 65 | 346 | 2.0 | 7.0 | 0.00 | 0.01 | 0.00 | 79 | 1015.5 |
| 20260507065711 | 65 | 13 | 2.0 | 6.0 | 0.00 | 0.01 | 0.00 | 79 | 1015.4 |
| 20260507065211 | 65 | 59 | 4.0 | 10.0 | 0.00 | 0.01 | 0.00 | 79 | 1015.2 |
| 20260507064711 | 65 | 93 | 5.0 | 10.0 | 0.00 | 0.01 | 0.00 | 79 | 1015.2 |
| 20260507064211 | 65 | 45 | 5.0 | 11.0 | 0.00 | 0.01 | 0.00 | 79 | 1015.1 |
| 20260507063711 | 65 | 21 | 5.0 | 14.0 | 0.00 | 0.01 | 0.00 | 79 | 1014.9 |
| 20260507063211 | 65 | 348 | 4.0 | 14.0 | 0.00 | 0.01 | 0.00 | 79 | 1015.0 |
| 20260507062705 | 65 | 41 | 3.0 | 9.0 | 0.00 | 0.01 | 0.00 | 79 | 1015.0 |
| 20260507062205 | 65 | 27 | 2.0 | 6.0 | 0.00 | 0.01 | 0.00 | 79 | 1015.1 |
| 20260507061703 | 65 | 19 | 3.0 | 7.0 | 0.00 | 0.01 | 0.00 | 79 | 1015.1 |
| 20260507061203 | 65 | 28 | 3.0 | 9.0 | 0.00 | 0.01 | 0.00 | 79 | 1015.1 |
| 20260507060703 | 65 | 61 | 4.0 | 10.0 | 0.00 | 0.01 | 0.00 | 79 | 1014.9 |
| 20260507060204 | 65 | 62 | 4.0 | 12.0 | 0.00 | 0.01 | 0.00 | 79 | 1014.9 |
| 20260507055705 | 65 | 18 | 5.0 | 11.0 | 0.00 | 0.01 | 0.00 | 79 | 1014.8 |
| 20260507055701 | 65 | 36 | 4.0 | 12.0 | 0.00 | 0.01 | 0.00 | 79 | 1014.7 |
| 20260507054659 | 65 | 315 | 5.0 | 13.0 | 0.00 | 0.01 | 0.00 | 79 | 1014.7 |
| 20260507054200 | 65 | 101 | 4.0 | 13.0 | 0.00 | 0.01 | 0.00 | 79 | 1014.5 |
| 20260507053659 | 65 | 18 | 5.0 | 12.0 | 0.00 | 0.01 | 0.00 | 79 | 1014.4 |
| 20260507053157 | 65 | 34 | 6.0 | 15.0 | 0.00 | 0.01 | 0.00 | 79 | 1014.3 |
| 20260507052656 | 65 | 19 | 6.0 | 18.0 | 0.00 | 0.01 | 0.00 | 79 | 1014.3 |
| 20260507052155 | 65 | 28 | 7.0 | 18.0 | 0.00 | 0.01 | 0.00 | 79 | 1014.0 |
| 20260507051655 | 65 | 69 | 6.0 | 16.0 | 0.00 | 0.01 | 0.00 | 79 | 1014.1 |
| 20260507051159 | 65 | 341 | 6.0 | 12.0 | 0.00 | 0.01 | 0.00 | 79 | 1013.5 |
| 20260507051154 | 65 | 315 | 6.0 | 13.0 | 0.00 | 0.01 | 0.00 | 79 | 1013.7 |
| 20260507050159 | 65 | 40 | 5.0 | 14.0 | 0.00 | 0.01 | 0.00 | 79 | 1013.9 |
| 20260507050154 | 65 | 23 | 5.0 | 14.0 | 0.00 | 0.01 | 0.01 | 79 | 1014.0 |
| 20260507045152 | 65 | 19 | 5.0 | 11.0 | 0.00 | 0.01 | 0.01 | 79 | 1014.1 |
| 20260507044651 | 65 | 19 | 5.0 | 11.0 | 0.00 | 0.01 | 0.01 | 79 | 1013.9 |
| 20260507044152 | 65 | 34 | 5.0 | 13.0 | 0.00 | 0.01 | 0.01 | 79 | 1014.0 |
| 20260507043654 | 65 | 27 | 5.0 | 13.0 | 0.00 | 0.01 | 0.01 | 79 | 1014.1 |
| 20260507043650 | 65 | 40 | 5.0 | 11.0 | 0.00 | 0.01 | 0.01 | 79 | 1014.4 |
| 20260507042646 | 65 | 30 | 4.0 | 11.0 | 0.00 | 0.01 | 0.01 | 79 | 1014.4 |
| 20260507042145 | 65 | 355 | 4.0 | 11.0 | 0.00 | 0.01 | 0.01 | 79 | 1014.5 |
| 20260507041646 | 65 | 9 | 5.0 | 11.0 | 0.00 | 0.01 | 0.01 | 79 | 1014.3 |
| 20260507041148 | 65 | 26 | 6.0 | 11.0 | 0.00 | 0.01 | 0.01 | 79 | 1014.2 |
| 20260507041144 | 65 | 342 | 5.0 | 11.0 | 0.00 | 0.01 | 0.01 | 79 | 1014.0 |
| 20260507040143 | 65 | 39 | 5.0 | 11.0 | 0.00 | 0.01 | 0.01 | 79 | 1013.7 |
| 20260507035643 | 65 | 32 | 5.0 | 11.0 | 0.00 | 0.01 | 0.01 | 79 | 1013.6 |
| 20260507035143 | 65 | 339 | 4.0 | 10.0 | 0.00 | 0.01 | 0.01 | 79 | 1013.6 |
| 20260507034642 | 65 | 325 | 4.0 | 10.0 | 0.00 | 0.01 | 0.01 | 79 | 1013.4 |
| 20260507034143 | 65 | 55 | 5.0 | 12.0 | 0.00 | 0.01 | 0.01 | 79 | 1013.1 |
| 20260507033644 | 65 | 38 | 5.0 | 13.0 | 0.00 | 0.01 | 0.01 | 79 | 1013.2 |
| 20260507033143 | 65 | 59 | 5.0 | 13.0 | 0.00 | 0.01 | 0.01 | 79 | 1013.2 |
| 20260507032643 | 65 | 18 | 6.0 | 13.0 | 0.00 | 0.01 | 0.01 | 79 | 1013.3 |
| 20260507032144 | 65 | 21 | 7.0 | 16.0 | 0.00 | 0.01 | 0.01 | 78 | 1013.3 |
| 20260507031645 | 66 | 316 | 6.0 | 12.0 | 0.00 | 0.01 | 0.01 | 78 | 1013.1 |
| 20260507031641 | 66 | 29 | 7.0 | 16.0 | 0.00 | 0.01 | 0.01 | 78 | 1013.1 |
| 20260507030641 | 66 | 36 | 5.0 | 19.0 | 0.00 | 0.01 | 0.01 | 78 | 1013.2 |
| 20260507030145 | 66 | 20 | 5.0 | 14.0 | 0.00 | 0.01 | 0.01 | 78 | 1013.1 |
| 20260507030141 | 66 | 349 | 6.0 | 19.0 | 0.00 | 0.01 | 0.01 | 78 | 1013.3 |
| 20260507025145 | 66 | 320 | 5.0 | 12.0 | 0.00 | 0.01 | 0.01 | 78 | 1013.0 |
| 20260507025141 | 66 | 16 | 5.0 | 12.0 | 0.00 | 0.01 | 0.01 | 78 | 1013.2 |
| 20260507024141 | 66 | 26 | 5.0 | 10.0 | 0.00 | 0.01 | 0.01 | 78 | 1013.0 |
| 20260507023638 | 66 | 32 | 4.0 | 10.0 | 0.00 | 0.01 | 0.01 | 78 | 1013.0 |
| 20260507023137 | 67 | 42 | 4.0 | 12.0 | 0.00 | 0.01 | 0.01 | 77 | 1013.0 |
| 20260507022638 | 67 | 326 | 6.0 | 12.0 | 0.00 | 0.01 | 0.01 | 77 | 1013.0 |
| 20260507022634 | 67 | 350 | 6.0 | 13.0 | 0.00 | 0.01 | 0.01 | 77 | 1012.8 |
| 20260507021633 | 67 | 19 | 6.0 | 13.0 | 0.00 | 0.01 | 0.01 | 77 | 1012.8 |
| 20260507021136 | 67 | 314 | 5.0 | 12.0 | 0.00 | 0.01 | 0.01 | 77 | 1012.8 |
| 20260507021132 | 67 | 347 | 7.0 | 15.0 | 0.00 | 0.01 | 0.01 | 76 | 1012.7 |
| 20260507020734 | 67 | 355 | 6.0 | 15.0 | 0.00 | 0.01 | 0.01 | 77 | 1012.7 |
| 20260507015627 | 67 | 80 | 6.0 | 14.0 | 0.00 | 0.01 | 0.01 | 76 | 1012.5 |
| 20260507015130 | 68 | 29 | 6.0 | 14.0 | 0.00 | 0.01 | 0.01 | 76 | 1012.4 |
| 20260507015126 | 68 | 21 | 6.0 | 13.0 | 0.00 | 0.01 | 0.01 | 76 | 1012.4 |
| 20260507014129 | 68 | 15 | 6.0 | 14.0 | 0.00 | 0.01 | 0.01 | 75 | 1012.2 |
| 20260507014125 | 68 | 333 | 7.0 | 15.0 | 0.00 | 0.01 | 0.01 | 75 | 1012.1 |
| 20260507013128 | 69 | 355 | 7.0 | 14.0 | 0.00 | 0.01 | 0.01 | 75 | 1011.5 |
| 20260507013124 | 69 | 15 | 8.0 | 15.0 | 0.00 | 0.01 | 0.01 | 75 | 1011.5 |
| 20260507012121 | 69 | 344 | 7.0 | 14.0 | 0.00 | 0.01 | 0.01 | 74 | 1011.8 |
| 20260507011622 | 69 | 10 | 5.0 | 10.0 | 0.00 | 0.01 | 0.01 | 74 | 1011.7 |
| 20260507011124 | 70 | 46 | 5.0 | 10.0 | 0.00 | 0.01 | 0.01 | 74 | 1011.5 |
| 20260507011120 | 70 | 32 | 6.0 | 11.0 | 0.00 | 0.01 | 0.01 | 74 | 1011.7 |
| 20260507010119 | 70 | 24 | 6.0 | 16.0 | 0.00 | 0.01 | 0.01 | 73 | 1011.6 |
| 20260507005619 | 71 | 341 | 6.0 | 16.0 | 0.00 | 0.01 | 0.01 | 72 | 1011.7 |
| 20260507005120 | 71 | 318 | 6.0 | 12.0 | 0.00 | 0.01 | 0.01 | 72 | 1011.5 |
| 20260507004623 | 72 | 28 | 6.0 | 16.0 | 0.00 | 0.01 | 0.01 | 71 | 1011.1 |
| 20260507004619 | 71 | 34 | 6.0 | 13.0 | 0.00 | 0.01 | 0.01 | 72 | 1011.2 |
| 20260507003619 | 72 | 17 | 6.0 | 16.0 | 0.00 | 0.01 | 0.01 | 71 | 1011.2 |
| 20260507003120 | 73 | 327 | 6.0 | 15.0 | 0.00 | 0.01 | 0.01 | 71 | 1011.1 |
| 20260507002619 | 73 | 338 | 6.0 | 14.0 | 0.00 | 0.01 | 0.01 | 70 | 1011.1 |
| 20260507002119 | 74 | 18 | 6.0 | 14.0 | 0.00 | 0.01 | 0.01 | 70 | 1010.9 |
| 20260507001620 | 74 | 23 | 7.0 | 14.0 | 0.00 | 0.01 | 0.01 | 70 | 1011.0 |
| 20260507001119 | 74 | 350 | 7.0 | 15.0 | 0.00 | 0.01 | 0.01 | 70 | 1011.0 |
| 20260507000624 | 75 | 343 | 7.0 | 16.0 | 0.00 | 0.01 | 0.01 | 69 | 1010.8 |
| 20260507000620 | 74 | 11 | 7.0 | 15.0 | 0.00 | 0.01 | 0.01 | 69 | 1011.1 |
| 20260507000223 | 75 | 286 | 7.0 | 16.0 | 0.00 | 0.01 | 0.01 | 68 | 1010.8 |
| 20260506235724 | 76 | 340 | 7.0 | 13.0 | 0.00 | 0.01 | 0.01 | 68 | 1010.6 |
| 20260506234620 | 76 | 303 | 7.0 | 20.0 | 0.00 | 0.01 | 0.01 | 68 | 1010.4 |
| 20260506234119 | 76 | 334 | 7.0 | 20.0 | 0.00 | 0.01 | 0.01 | 67 | 1010.3 |
| 20260506233619 | 77 | 336 | 7.0 | 15.0 | 0.00 | 0.01 | 0.01 | 66 | 1010.4 |
| 20260506233124 | 78 | 355 | 8.0 | 15.0 | 0.00 | 0.01 | 0.01 | 64 | 1010.2 |
| 20260506233120 | 77 | 345 | 8.0 | 15.0 | 0.00 | 0.01 | 0.01 | 66 | 1010.4 |
| 20260506232119 | 79 | 323 | 8.0 | 15.0 | 0.00 | 0.01 | 0.01 | 63 | 1010.1 |
| 20260506231620 | 80 | 30 | 7.0 | 15.0 | 0.00 | 0.01 | 0.01 | 65 | 1009.9 |
| 20260506231119 | 81 | 24 | 7.0 | 14.0 | 0.00 | 0.01 | 0.01 | 66 | 1009.8 |
| 20260506230619 | 82 | 45 | 7.0 | 13.0 | 0.00 | 0.01 | 0.01 | 66 | 1009.8 |
| 20260506230120 | 82 | 51 | 8.0 | 14.0 | 0.00 | 0.01 | 0.01 | 66 | 1009.7 |
| 20260506225620 | 82 | 47 | 7.0 | 15.0 | 0.00 | 0.01 | 0.01 | 66 | 1009.6 |
| 20260506225119 | 82 | 55 | 6.0 | 15.0 | 0.00 | 0.01 | 0.01 | 66 | 1009.6 |
| 20260506224620 | 82 | 34 | 5.0 | 16.0 | 0.00 | 0.01 | 0.01 | 67 | 1009.6 |
| 20260506224119 | 82 | 78 | 6.0 | 16.0 | 0.00 | 0.01 | 0.01 | 67 | 1009.7 |
| 20260506223620 | 82 | 32 | 7.0 | 14.0 | 0.00 | 0.01 | 0.01 | 67 | 1009.6 |
| 20260506223119 | 83 | 13 | 6.0 | 14.0 | 0.00 | 0.01 | 0.01 | 66 | 1009.4 |
| 20260506222624 | 83 | 313 | 6.0 | 14.0 | 0.00 | 0.01 | 0.01 | 66 | 1009.4 |
| 20260506222620 | 83 | 72 | 6.0 | 13.0 | 0.00 | 0.01 | 0.01 | 66 | 1009.4 |
| 20260506221619 | 83 | 13 | 7.0 | 14.0 | 0.00 | 0.01 | 0.01 | 66 | 1009.5 |
| 20260506221118 | 83 | 18 | 8.0 | 14.0 | 0.00 | 0.01 | 0.01 | 66 | 1009.3 |
| 20260506220617 | 83 | 40 | 7.0 | 14.0 | 0.00 | 0.01 | 0.01 | 66 | 1009.4 |
| 20260506220118 | 84 | 33 | 6.0 | 15.0 | 0.00 | 0.01 | 0.01 | 65 | 1009.3 |
| 20260506215618 | 84 | 11 | 7.0 | 15.0 | 0.00 | 0.01 | 0.01 | 64 | 1009.2 |
| 20260506215117 | 85 | 350 | 6.0 | 16.0 | 0.00 | 0.01 | 0.01 | 62 | 1009.1 |
| 20260506214618 | 88 | 333 | 3.0 | 16.0 | 0.00 | 0.01 | 0.01 | 58 | 1009.1 |
| 20260506214115 | 89 | 78 | 1.0 | 6.0 | 0.00 | 0.01 | 0.01 | 58 | 1009.0 |
| 20260506213618 | 89 | 313 | 2.0 | 6.0 | 0.00 | 0.01 | 0.01 | 59 | 1009.0 |
| 20260506213614 | 89 | 11 | 2.0 | 6.0 | 0.00 | 0.01 | 0.01 | 58 | 1009.1 |
| 20260506212613 | 89 | 119 | 2.0 | 6.0 | 0.00 | 0.01 | 0.01 | 58 | 1009.2 |
| 20260506212114 | 89 | 167 | 2.0 | 6.0 | 0.00 | 0.01 | 0.01 | 58 | 1009.2 |
| 20260506211612 | 89 | 165 | 1.0 | 5.0 | 0.00 | 0.01 | 0.01 | 58 | 1009.1 |
| 20260506211112 | 89 | 32 | 1.0 | 5.0 | 0.00 | 0.01 | 0.01 | 57 | 1009.3 |
| 20260506210615 | 89 | 55 | 1.0 | 4.0 | 0.00 | 0.01 | 0.01 | 58 | 1009.3 |
| 20260506210611 | 89 | 40 | 1.0 | 4.0 | 0.00 | 0.01 | 0.01 | 56 | 1009.4 |
| 20260506205803 | 89 | 101 | 2.0 | 7.0 | 0.00 | 0.01 | 0.01 | 58 | 1009.4 |
| 20260506205610 | 90 | 52 | 2.0 | 7.0 | 0.00 | 0.01 | 0.01 | 58 | 1009.4 |
| 20260506205406 | 91 | 121 | 2.0 | 7.0 | 0.00 | 0.01 | 0.01 | 57 | 1009.5 |
| 20260506205257 | 89 | 55 | 1.0 | 6.0 | 0.00 | 0.01 | 0.01 | 59 | 1009.5 |
| 20260506205253 | 90 | 57 | 1.0 | 6.0 | 0.00 | 0.01 | 0.01 | 57 | 1009.6 |
| 20260506203605 | 91 | 121 | 2.0 | 7.0 | 0.00 | 0.01 | 0.01 | 57 | 1009.5 |
| 20260506203106 | 91 | 102 | 2.0 | 7.0 | 0.00 | 0.01 | 0.01 | 58 | 1009.6 |
| 20260506202604 | 91 | 143 | 1.0 | 5.0 | 0.00 | 0.01 | 0.01 | 57 | 1009.6 |
| 20260506202103 | 91 | 138 | 1.0 | 5.0 | 0.00 | 0.01 | 0.01 | 57 | 1009.6 |
| 20260506201604 | 90 | 142 | 1.0 | 5.0 | 0.00 | 0.01 | 0.01 | 60 | 1009.7 |
| 20260506201103 | 89 | 129 | 1.0 | 4.0 | 0.00 | 0.01 | 0.01 | 62 | 1009.8 |
| 20260506200602 | 87 | 142 | 1.0 | 4.0 | 0.00 | 0.01 | 0.01 | 64 | 1009.9 |
| 20260506195604 | 87 | 74 | 2.0 | 6.0 | 0.00 | 0.01 | 0.01 | 63 | 1010.1 |
| 20260506195600 | 87 | 74 | 1.0 | 5.0 | 0.00 | 0.01 | 0.01 | 62 | 1010.0 |
| 20260506194558 | 88 | 9 | 2.0 | 6.0 | 0.00 | 0.01 | 0.01 | 63 | 1010.2 |
| 20260506194102 | 88 | 214 | 1.0 | 4.0 | 0.00 | 0.01 | 0.01 | 63 | 1010.1 |
| 20260506194058 | 88 | 119 | 1.0 | 6.0 | 0.00 | 0.01 | 0.01 | 63 | 1010.1 |
| 20260506193058 | 87 | 169 | 1.0 | 5.0 | 0.00 | 0.01 | 0.01 | 66 | 1010.1 |
| 20260506192555 | 87 | 163 | 2.0 | 5.0 | 0.00 | 0.01 | 0.01 | 64 | 1010.2 |
| 20260506192054 | 87 | 105 | 2.0 | 8.0 | 0.00 | 0.01 | 0.01 | 64 | 1010.3 |
| 20260506191554 | 87 | 92 | 2.0 | 8.0 | 0.00 | 0.01 | 0.01 | 65 | 1010.3 |
| 20260506191057 | 87 | 103 | 2.0 | 7.0 | 0.00 | 0.01 | 0.01 | 66 | 1010.3 |
| 20260506191053 | 87 | 140 | 2.0 | 7.0 | 0.00 | 0.01 | 0.01 | 67 | 1010.3 |
| 20260506190054 | 86 | 126 | 1.0 | 5.0 | 0.00 | 0.01 | 0.01 | 67 | 1010.4 |
| 20260506185554 | 85 | 104 | 1.0 | 5.0 | 0.00 | 0.01 | 0.01 | 68 | 1010.5 |
| 20260506185052 | 85 | 78 | 2.0 | 6.0 | 0.00 | 0.01 | 0.01 | 68 | 1010.5 |
| 20260506184552 | 85 | 69 | 1.0 | 7.0 | 0.00 | 0.01 | 0.01 | 68 | 1010.6 |
| 20260506184052 | 85 | 166 | 2.0 | 7.0 | 0.00 | 0.01 | 0.01 | 70 | 1010.6 |
| 20260506183552 | 85 | 128 | 2.0 | 7.0 | 0.00 | 0.01 | 0.01 | 72 | 1010.7 |
| 20260506183052 | 84 | 88 | 1.0 | 7.0 | 0.00 | 0.01 | 0.01 | 71 | 1010.8 |
| 20260506182550 | 84 | 128 | 1.0 | 6.0 | 0.00 | 0.01 | 0.01 | 72 | 1010.9 |
| 20260506182050 | 83 | 111 | 2.0 | 8.0 | 0.00 | 0.01 | 0.01 | 73 | 1011.0 |
| 20260506181553 | 82 | 107 | 2.0 | 4.0 | 0.00 | 0.01 | 0.01 | 74 | 1011.1 |
| 20260506181549 | 83 | 39 | 1.0 | 8.0 | 0.00 | 0.01 | 0.01 | 73 | 1011.0 |
| 20260506181154 | 82 | 349 | 2.0 | 8.0 | 0.00 | 0.01 | 0.01 | 74 | 1011.1 |
| 20260506180052 | 81 | 68 | 2.0 | 6.0 | 0.00 | 0.01 | 0.01 | 77 | 1011.1 |
| 20260506180048 | 81 | 82 | 2.0 | 8.0 | 0.00 | 0.01 | 0.01 | 75 | 1011.2 |
| 20260506175652 | 81 | 76 | 1.0 | 5.0 | 0.00 | 0.01 | 0.01 | 76 | 1011.2 |
| 20260506174549 | 80 | 22 | 1.0 | 6.0 | 0.00 | 0.01 | 0.01 | 76 | 1011.2 |
| 20260506174545 | 80 | 355 | 1.0 | 6.0 | 0.00 | 0.01 | 0.01 | 77 | 1011.3 |
| 20260506173548 | 79 | 34 | 0.0 | 5.0 | 0.00 | 0.01 | 0.01 | 80 | 1011.3 |
| 20260506173544 | 80 | 45 | 1.0 | 5.0 | 0.00 | 0.01 | 0.01 | 78 | 1011.3 |
| 20260506172544 | 79 | 36 | 0.0 | 2.0 | 0.00 | 0.01 | 0.01 | 80 | 1011.3 |
| 20260506172044 | 79 | 36 | 0.0 | 0.0 | 0.00 | 0.01 | 0.01 | 80 | 1011.3 |
| 20260506171543 | 79 | 36 | 0.0 | 0.0 | 0.00 | 0.01 | 0.01 | 80 | 1011.3 |
| 20260506171042 | 78 | 36 | 0.0 | 0.0 | 0.00 | 0.01 | 0.01 | 81 | 1011.3 |
| 20260506170541 | 78 | 36 | 0.0 | 4.0 | 0.00 | 0.01 | 0.01 | 83 | 1011.3 |
| 20260506170040 | 78 | 36 | 1.0 | 4.0 | 0.00 | 0.01 | 0.01 | 82 | 1011.3 |
| 20260506165540 | 77 | 36 | 1.0 | 4.0 | 0.00 | 0.01 | 0.01 | 83 | 1011.4 |
| 20260506165043 | 77 | 37 | 1.0 | 4.0 | 0.00 | 0.01 | 0.01 | 84 | 1011.4 |
| 20260506165038 | 77 | 37 | 0.0 | 2.0 | 0.01 | 0.01 | 0.01 | 84 | 1011.4 |
| 20260506164037 | 77 | 36 | 0.0 | 2.0 | 0.01 | 0.01 | 0.01 | 85 | 1011.3 |
| 20260506163538 | 76 | 36 | 1.0 | 2.0 | 0.01 | 0.01 | 0.01 | 86 | 1011.3 |
| 20260506163036 | 76 | 36 | 1.0 | 4.0 | 0.01 | 0.01 | 0.01 | 86 | 1011.3 |
| 20260506162534 | 76 | 26 | 1.0 | 4.0 | 0.01 | 0.01 | 0.01 | 86 | 1011.3 |
| 20260506162034 | 75 | 54 | 1.0 | 4.0 | 0.01 | 0.01 | 0.01 | 87 | 1011.3 |
| 20260506161533 | 75 | 46 | 2.0 | 4.0 | 0.01 | 0.01 | 0.01 | 88 | 1011.3 |
| 20260506161034 | 75 | 64 | 2.0 | 4.0 | 0.01 | 0.01 | 0.01 | 88 | 1011.2 |
| 20260506160538 | 75 | 85 | 1.0 | 6.0 | 0.01 | 0.01 | 0.01 | 87 | 1011.0 |
| 20260506160534 | 75 | 51 | 2.0 | 6.0 | 0.01 | 0.01 | 0.01 | 88 | 1011.1 |
| 20260506155538 | 75 | 58 | 2.0 | 4.0 | 0.01 | 0.01 | 0.01 | 86 | 1011.1 |
| 20260506155534 | 75 | 59 | 1.0 | 4.0 | 0.01 | 0.01 | 0.01 | 87 | 1011.1 |
| 20260506154534 | 76 | 42 | 2.0 | 6.0 | 0.00 | 0.00 | 0.00 | 85 | 1011.0 |
| 20260506154031 | 76 | 69 | 1.0 | 6.0 | 0.00 | 0.00 | 0.00 | 84 | 1011.0 |
| 20260506153532 | 76 | 44 | 1.0 | 5.0 | 0.00 | 0.00 | 0.00 | 83 | 1010.9 |
| 20260506153032 | 77 | 50 | 1.0 | 4.0 | 0.00 | 0.00 | 0.00 | 83 | 1010.8 |
| 20260506152531 | 77 | 56 | 1.0 | 4.0 | 0.00 | 0.00 | 0.00 | 83 | 1010.8 |
| 20260506152032 | 77 | 54 | 1.0 | 2.0 | 0.00 | 0.00 | 0.00 | 83 | 1010.6 |
| 20260506151532 | 77 | 54 | 1.0 | 6.0 | 0.00 | 0.00 | 0.00 | 83 | 1010.6 |
| 20260506151032 | 77 | 65 | 1.0 | 6.0 | 0.00 | 0.00 | 0.00 | 82 | 1010.5 |
| 20260506150530 | 77 | 48 | 1.0 | 4.0 | 0.00 | 0.00 | 0.00 | 82 | 1010.5 |
| 20260506150028 | 77 | 27 | 1.0 | 4.0 | 0.00 | 0.00 | 0.00 | 83 | 1010.4 |
| 20260506145528 | 77 | 27 | 1.0 | 4.0 | 0.00 | 0.00 | 0.00 | 83 | 1010.4 |
| 20260506145029 | 76 | 119 | 1.0 | 2.0 | 0.00 | 0.00 | 0.00 | 83 | 1010.4 |
| 20260506144528 | 76 | 119 | 1.0 | 2.0 | 0.00 | 0.00 | 0.00 | 83 | 1010.4 |
| 20260506144027 | 76 | 126 | 0.0 | 1.0 | 0.00 | 0.00 | 0.00 | 83 | 1010.3 |
| 20260506143528 | 76 | 126 | 0.0 | 4.0 | 0.00 | 0.00 | 0.00 | 83 | 1010.3 |
| 20260506143028 | 76 | 126 | 0.0 | 4.0 | 0.00 | 0.00 | 0.00 | 84 | 1010.2 |
| 20260506142528 | 76 | 131 | 1.0 | 5.0 | 0.00 | 0.00 | 0.00 | 84 | 1010.1 |
| 20260506142032 | 76 | 121 | 1.0 | 5.0 | 0.00 | 0.00 | 0.00 | 84 | 1009.9 |
| 20260506142028 | 76 | 110 | 1.0 | 5.0 | 0.00 | 0.00 | 0.00 | 84 | 1009.9 |
| 20260506141028 | 76 | 261 | 0.0 | 1.0 | 0.00 | 0.00 | 0.00 | 85 | 1010.0 |
| 20260506140526 | 76 | 261 | 1.0 | 4.0 | 0.00 | 0.00 | 0.00 | 85 | 1009.9 |
| 20260506140026 | 76 | 126 | 1.0 | 4.0 | 0.00 | 0.00 | 0.00 | 85 | 1009.7 |
| 20260506135526 | 76 | 131 | 0.0 | 4.0 | 0.00 | 0.00 | 0.00 | 85 | 1009.6 |
| 20260506135025 | 75 | 132 | 0.0 | 4.0 | 0.00 | 0.00 | 0.00 | 86 | 1009.5 |
| 20260506134526 | 75 | 142 | 1.0 | 5.0 | 0.00 | 0.00 | 0.00 | 86 | 1009.4 |
| 20260506134025 | 75 | 114 | 1.0 | 5.0 | 0.00 | 0.00 | 0.00 | 86 | 1009.2 |
| 20260506133526 | 75 | 119 | 1.0 | 5.0 | 0.00 | 0.00 | 0.00 | 86 | 1009.2 |
| 20260506133026 | 75 | 121 | 1.0 | 5.0 | 0.00 | 0.00 | 0.00 | 86 | 1009.1 |
| 20260506132524 | 75 | 116 | 1.0 | 5.0 | 0.00 | 0.00 | 0.00 | 86 | 1009.1 |
| 20260506132028 | 75 | 108 | 1.0 | 4.0 | 0.00 | 0.00 | 0.00 | 86 | 1009.1 |
| 20260506132024 | 75 | 113 | 1.0 | 4.0 | 0.00 | 0.00 | 0.00 | 86 | 1009.2 |
| 20260506131024 | 75 | 105 | 1.0 | 7.0 | 0.00 | 0.00 | 0.00 | 87 | 1009.0 |
| 20260506130524 | 75 | 158 | 2.0 | 7.0 | 0.00 | 0.00 | 0.00 | 87 | 1008.9 |
| 20260506130024 | 75 | 127 | 2.0 | 7.0 | 0.00 | 0.00 | 0.00 | 87 | 1008.8 |
| 20260506125524 | 75 | 134 | 2.0 | 7.0 | 0.00 | 0.00 | 0.00 | 87 | 1008.8 |
| 20260506125024 | 74 | 111 | 2.0 | 6.0 | 0.00 | 0.00 | 0.00 | 87 | 1008.8 |
| 20260506124524 | 74 | 117 | 1.0 | 5.0 | 0.00 | 0.00 | 0.00 | 88 | 1008.9 |
| 20260506124024 | 74 | 127 | 1.0 | 6.0 | 0.00 | 0.00 | 0.00 | 88 | 1008.8 |
| 20260506123528 | 74 | 118 | 1.0 | 5.0 | 0.00 | 0.00 | 0.00 | 88 | 1008.9 |
| 20260506123524 | 74 | 120 | 1.0 | 6.0 | 0.00 | 0.00 | 0.00 | 88 | 1008.8 |
| 20260506122523 | 74 | 119 | 1.0 | 4.0 | 0.00 | 0.00 | 0.00 | 88 | 1008.8 |
| 20260506122023 | 74 | 134 | 1.0 | 4.0 | 0.00 | 0.00 | 0.00 | 88 | 1008.8 |
| 20260506121521 | 74 | 157 | 0.0 | 2.0 | 0.00 | 0.00 | 0.00 | 88 | 1008.9 |
| 20260506121019 | 74 | 118 | 1.0 | 5.0 | 0.00 | 0.00 | 0.00 | 88 | 1008.9 |
| 20260506120519 | 74 | 123 | 1.0 | 5.0 | 0.00 | 0.00 | 0.00 | 88 | 1008.9 |
| 20260506120019 | 74 | 125 | 1.0 | 5.0 | 0.00 | 0.00 | 0.00 | 88 | 1008.8 |
| 20260506115520 | 74 | 131 | 1.0 | 5.0 | 0.00 | 0.00 | 0.00 | 88 | 1008.8 |
| 20260506115017 | 74 | 118 | 1.0 | 5.0 | 0.00 | 0.00 | 0.00 | 88 | 1008.8 |
| 20260506114517 | 74 | 130 | 0.0 | 5.0 | 0.00 | 0.00 | 0.00 | 88 | 1008.8 |
| 20260506114018 | 74 | 108 | 0.0 | 2.0 | 0.00 | 0.00 | 0.00 | 88 | 1008.8 |
| 20260506113515 | 74 | 108 | 0.0 | 2.0 | 0.00 | 0.00 | 0.00 | 88 | 1008.8 |
| 20260506113017 | 74 | 108 | 0.0 | 2.0 | 0.00 | 0.00 | 0.00 | 87 | 1008.8 |
| 20260506112516 | 74 | 108 | 0.0 | 1.0 | 0.00 | 0.00 | 0.00 | 87 | 1008.8 |
| 20260506112015 | 74 | 108 | 0.0 | 1.0 | 0.00 | 0.00 | 0.00 | 87 | 1008.8 |
| 20260506111513 | 74 | 108 | 0.0 | 4.0 | 0.00 | 0.00 | 0.00 | 87 | 1008.8 |
| 20260506111012 | 74 | 108 | 0.0 | 4.0 | 0.00 | 0.00 | 0.00 | 87 | 1008.8 |
| 20260506110511 | 74 | 122 | 0.0 | 2.0 | 0.00 | 0.00 | 0.00 | 87 | 1008.8 |
| 20260506110009 | 74 | 123 | 0.0 | 1.0 | 0.00 | 0.00 | 0.00 | 87 | 1008.8 |
| 20260506105507 | 74 | 123 | 0.0 | 1.0 | 0.00 | 0.00 | 0.00 | 87 | 1008.8 |
| 20260506105008 | 74 | 123 | 0.0 | 1.0 | 0.00 | 0.00 | 0.00 | 87 | 1008.8 |
| 20260506104508 | 74 | 123 | 0.0 | 5.0 | 0.00 | 0.00 | 0.00 | 87 | 1008.7 |
| 20260506104004 | 75 | 123 | 0.0 | 5.0 | 0.00 | 0.00 | 0.00 | 87 | 1008.6 |
| 20260506103503 | 75 | 133 | 1.0 | 5.0 | 0.00 | 0.00 | 0.00 | 87 | 1008.4 |
| 20260506103006 | 75 | 134 | 1.0 | 5.0 | 0.00 | 0.00 | 0.00 | 87 | 1008.4 |
| 20260506103002 | 75 | 134 | 0.0 | 5.0 | 0.00 | 0.00 | 0.00 | 87 | 1008.4 |
| 20260506102002 | 75 | 126 | 1.0 | 5.0 | 0.00 | 0.00 | 0.00 | 87 | 1008.6 |